Location: DARK SKY Beskydy - Park tmavé oblohy, www.darkskybeskydy.cz
(49.4926°N, 18.5016°E)
Time: 03:01:13
(UTC+02:00)

A-11 Canister half - Pass Details

Date: 22 February 2024
Orbit: 1513 x 1686 km, 47.2° (Epoch: 24 April)

Event Time Altitude Azimuth Distance (km) Brightness Sun altitude
Rises 08:48:33 0° 289° (WNW) 4,866 11.1 17.0°
Reaches altitude 10° 08:52:01 10° 282° (WNW) 3,852 10.6 17.5°
Maximum altitude 09:00:35 36° 220° (SW) 2,302 10.2 18.5°
Drops below altitude 10° 09:08:53 10° 158° (SSE) 3,720 12.5 19.5°
Sets 09:12:11 0° 150° (SSE) 4,681 13.0 19.9°
